Time,TemperatureF,DewpointF,PressureIn,WindDirection,WindDirectionDegrees,WindSpeedMPH,WindSpeedGustMPH,Humidity,HourlyPrecipIn,Conditions,Clouds,dailyrainin,SoftwareType,DateUTC
2013-02-10 00:01:00,13.0,7.0,30.13,North,355,6.0,20.0,76,0.00,,,0.00,,2013-02-10 05:01:00,
2013-02-10 00:11:00,13.0,7.0,30.13,North,355,6.0,20.0,76,0.00,,,0.00,,2013-02-10 05:11:00,
2013-02-10 00:22:00,13.0,7.0,30.13,WNW,294,5.0,17.0,76,0.00,,,0.00,,2013-02-10 05:22:00,
2013-02-10 00:32:00,13.0,7.0,30.13,North,350,3.0,18.0,76,0.00,,,0.00,,2013-02-10 05:32:00,
2013-02-10 00:41:00,13.0,7.0,30.13,North,350,3.0,18.0,76,0.00,,,0.00,,2013-02-10 05:41:00,
2013-02-10 00:52:00,13.0,7.0,30.14,NNW,337,6.0,18.0,76,0.00,,,0.00,,2013-02-10 05:52:00,
2013-02-10 01:02:00,13.0,7.0,30.15,NNW,328,9.0,17.0,75,0.00,,,0.00,,2013-02-10 06:02:00,
2013-02-10 01:11:00,13.0,7.0,30.15,NNW,328,9.0,17.0,75,0.00,,,0.00,,2013-02-10 06:11:00,
2013-02-10 01:21:00,13.0,7.0,30.15,North,360,7.0,19.0,75,0.00,,,0.00,,2013-02-10 06:21:00,
2013-02-10 01:32:00,13.0,7.0,30.15,WNW,302,11.0,17.0,75,0.00,,,0.00,,2013-02-10 06:32:00,
2013-02-10 01:42:00,13.0,7.0,30.15,WNW,302,11.0,17.0,75,0.00,,,0.00,,2013-02-10 06:42:00,
2013-02-10 01:51:00,13.0,6.0,30.15,NNW,327,7.0,20.0,74,0.00,,,0.00,,2013-02-10 06:51:00,
2013-02-10 02:01:00,12.0,5.0,30.15,NW,314,4.0,16.0,74,0.00,,,0.00,,2013-02-10 07:01:00,
2013-02-10 02:11:00,12.0,5.0,30.15,NW,314,4.0,16.0,74,0.00,,,0.00,,2013-02-10 07:11:00,
2013-02-10 02:21:00,12.0,5.0,30.15,NW,314,4.0,16.0,74,0.00,,,0.00,,2013-02-10 07:21:00,
2013-02-10 02:32:00,12.0,5.0,30.16,NNW,331,6.0,15.0,74,0.00,,,0.00,,2013-02-10 07:32:00,
2013-02-10 02:42:00,12.0,5.0,30.16,NNW,331,6.0,15.0,74,0.00,,,0.00,,2013-02-10 07:42:00,
2013-02-10 02:52:00,12.0,6.0,30.16,NW,304,11.0,17.0,75,0.00,,,0.00,,2013-02-10 07:52:00,
2013-02-10 03:01:00,12.0,5.0,30.16,NW,305,8.0,16.0,74,0.00,,,0.00,,2013-02-10 08:01:00,
2013-02-10 03:11:00,12.0,5.0,30.16,NW,305,8.0,16.0,74,0.00,,,0.00,,2013-02-10 08:11:00,
2013-02-10 03:21:00,13.0,6.0,30.17,NW,311,6.0,20.0,74,0.00,,,0.00,,2013-02-10 08:21:00,
2013-02-10 03:32:00,12.0,5.0,30.18,North,350,8.0,13.0,74,0.00,,,0.00,,2013-02-10 08:32:00,
2013-02-10 03:43:00,12.0,5.0,30.18,North,350,8.0,13.0,74,0.00,,,0.00,,2013-02-10 08:43:00,
2013-02-10 03:52:00,12.0,5.0,30.18,North,350,8.0,13.0,74,0.00,,,0.00,,2013-02-10 08:52:00,
2013-02-10 04:02:00,11.0,4.0,30.19,WNW,282,4.0,14.0,74,0.00,,,0.00,,2013-02-10 09:02:00,
2013-02-10 04:11:00,11.0,4.0,30.19,WNW,282,4.0,14.0,74,0.00,,,0.00,,2013-02-10 09:11:00,
2013-02-10 04:21:00,11.0,4.0,30.19,WNW,282,4.0,14.0,74,0.00,,,0.00,,2013-02-10 09:21:00,
2013-02-10 04:32:00,10.0,4.0,30.20,WNW,292,5.0,12.0,75,0.00,,,0.00,,2013-02-10 09:32:00,
2013-02-10 04:42:00,10.0,4.0,30.20,WNW,292,5.0,12.0,75,0.00,,,0.00,,2013-02-10 09:42:00,
2013-02-10 04:52:00,10.0,3.0,30.20,West,275,4.0,14.0,74,0.00,,,0.00,,2013-02-10 09:52:00,
2013-02-10 05:01:00,10.0,4.0,30.21,WNW,299,4.0,12.0,75,0.00,,,0.00,,2013-02-10 10:01:00,
2013-02-10 05:11:00,10.0,4.0,30.22,NW,321,2.0,12.0,75,0.00,,,0.00,,2013-02-10 10:11:00,
2013-02-10 05:21:00,10.0,4.0,30.22,NW,321,2.0,12.0,75,0.00,,,0.00,,2013-02-10 10:21:00,
2013-02-10 05:32:00,9.0,3.0,30.23,WNW,292,3.0,12.0,75,0.00,,,0.00,,2013-02-10 10:32:00,
2013-02-10 05:42:00,9.0,3.0,30.23,WNW,292,3.0,12.0,75,0.00,,,0.00,,2013-02-10 10:42:00,
2013-02-10 05:51:00,9.0,3.0,30.24,NW,311,8.0,15.0,75,0.00,,,0.00,,2013-02-10 10:51:00,
2013-02-10 06:01:00,9.0,3.0,30.24,WNW,284,3.0,10.0,75,0.00,,,0.00,,2013-02-10 11:01:00,
2013-02-10 06:11:00,9.0,3.0,30.24,WNW,284,3.0,10.0,75,0.00,,,0.00,,2013-02-10 11:11:00,
2013-02-10 06:22:00,9.0,3.0,30.24,WNW,284,3.0,10.0,75,0.00,,,0.00,,2013-02-10 11:22:00,
2013-02-10 06:32:00,8.0,2.0,30.25,WNW,299,3.0,7.0,75,0.00,,,0.00,,2013-02-10 11:32:00,
2013-02-10 06:42:00,8.0,2.0,30.25,WNW,299,3.0,7.0,75,0.00,,,0.00,,2013-02-10 11:42:00,
2013-02-10 06:52:00,7.0,1.0,30.26,NW,309,2.0,5.0,76,0.00,,,0.00,,2013-02-10 11:52:00,
2013-02-10 07:02:00,6.0,0.0,30.26,West,271,4.0,7.0,76,0.00,,,0.00,,2013-02-10 12:02:00,
2013-02-10 07:12:00,6.0,0.0,30.26,West,271,4.0,7.0,76,0.00,,,0.00,,2013-02-10 12:12:00,
2013-02-10 07:21:00,7.0,1.0,30.27,WNW,302,3.0,7.0,77,0.00,,,0.00,,2013-02-10 12:21:00,
2013-02-10 07:32:00,7.0,1.0,30.28,NW,315,2.0,5.0,76,0.00,,,0.00,,2013-02-10 12:32:00,
2013-02-10 07:42:00,7.0,1.0,30.28,NW,315,2.0,5.0,76,0.00,,,0.00,,2013-02-10 12:42:00,
2013-02-10 07:52:00,7.0,1.0,30.29,West,273,2.0,6.0,77,0.00,,,0.00,,2013-02-10 12:52:00,
2013-02-10 08:02:00,9.0,3.0,30.30,NW,318,2.0,6.0,77,0.00,,,0.00,,2013-02-10 13:02:00,
2013-02-10 08:11:00,9.0,3.0,30.30,NW,318,2.0,6.0,77,0.00,,,0.00,,2013-02-10 13:11:00,
2013-02-10 08:21:00,10.0,4.0,30.31,NW,304,1.0,6.0,76,0.00,,,0.00,,2013-02-10 13:21:00,
2013-02-10 08:31:00,13.0,6.0,30.32,North,355,6.0,13.0,73,0.00,,,0.00,,2013-02-10 13:31:00,
2013-02-10 08:41:00,13.0,6.0,30.32,North,355,6.0,13.0,73,0.00,,,0.00,,2013-02-10 13:41:00,
2013-02-10 08:51:00,14.0,6.0,30.32,NW,317,7.0,11.0,71,0.00,,,0.00,,2013-02-10 13:51:00,
2013-02-10 09:02:00,16.0,8.0,30.32,NW,317,5.0,12.0,69,0.00,,,0.00,,2013-02-10 14:02:00,
2013-02-10 09:11:00,16.0,8.0,30.32,NW,317,5.0,12.0,69,0.00,,,0.00,,2013-02-10 14:11:00,
2013-02-10 09:21:00,16.0,8.0,30.32,NW,317,5.0,12.0,69,0.00,,,0.00,,2013-02-10 14:21:00,
2013-02-10 09:32:00,19.0,10.0,30.32,NW,325,5.0,11.0,66,0.00,,,0.00,,2013-02-10 14:32:00,
2013-02-10 09:41:00,19.0,10.0,30.32,NW,325,5.0,11.0,66,0.00,,,0.00,,2013-02-10 14:41:00,
2013-02-10 09:52:00,20.0,11.0,30.33,NW,312,4.0,13.0,69,0.00,,,0.00,,2013-02-10 14:52:00,
2013-02-10 10:02:00,22.0,12.0,30.33,WNW,301,6.0,11.0,66,0.00,,,0.00,,2013-02-10 15:02:00,
2013-02-10 10:11:00,22.0,12.0,30.33,WNW,301,6.0,11.0,66,0.00,,,0.00,,2013-02-10 15:11:00,
2013-02-10 10:22:00,23.0,13.0,30.33,NNW,327,2.0,10.0,64,0.00,,,0.00,,2013-02-10 15:22:00,
2013-02-10 10:32:00,25.0,14.0,30.34,NNE,28,7.0,12.0,62,0.00,,,0.00,,2013-02-10 15:32:00,
2013-02-10 10:42:00,25.0,14.0,30.34,NNE,28,7.0,12.0,62,0.00,,,0.00,,2013-02-10 15:42:00,
2013-02-10 10:52:00,25.0,14.0,30.34,NNE,28,7.0,12.0,62,0.00,,,0.00,,2013-02-10 15:52:00,
2013-02-10 11:02:00,27.0,14.0,30.33,NNW,338,3.0,11.0,57,0.01,,,0.01,,2013-02-10 16:02:00,
2013-02-10 11:12:00,28.0,17.0,30.33,NNW,348,4.0,11.0,63,0.01,,,0.01,,2013-02-10 16:12:00,
2013-02-10 11:22:00,28.0,17.0,30.33,NNW,348,4.0,11.0,63,0.01,,,0.01,,2013-02-10 16:22:00,
2013-02-10 11:32:00,29.0,18.0,30.32,North,355,5.0,9.0,62,0.01,,,0.01,,2013-02-10 16:32:00,
2013-02-10 11:42:00,30.0,18.0,30.32,NW,319,4.0,10.0,60,0.02,,,0.02,,2013-02-10 16:42:00,
2013-02-10 11:52:00,30.0,18.0,30.32,NW,319,4.0,10.0,60,0.02,,,0.02,,2013-02-10 16:52:00,
2013-02-10 12:02:00,30.0,16.0,30.33,NW,317,6.0,12.0,55,0.01,,,0.02,,2013-02-10 17:02:00,
2013-02-10 12:11:00,30.0,16.0,30.33,NW,317,6.0,12.0,55,0.01,,,0.02,,2013-02-10 17:11:00,
2013-02-10 12:22:00,31.0,16.0,30.32,NNW,338,4.0,13.0,54,0.01,,,0.02,,2013-02-10 17:22:00,
2013-02-10 12:32:00,32.0,17.0,30.32,WNW,296,0.0,14.0,54,0.01,,,0.02,,2013-02-10 17:32:00,
2013-02-10 12:42:00,32.0,18.0,30.32,WNW,288,2.0,11.0,55,0.00,,,0.02,,2013-02-10 17:42:00,
2013-02-10 12:52:00,32.0,18.0,30.32,WNW,288,2.0,11.0,55,0.00,,,0.02,,2013-02-10 17:52:00,
2013-02-10 13:02:00,33.0,18.0,30.31,WNW,289,8.0,12.0,54,0.00,,,0.02,,2013-02-10 18:02:00,
2013-02-10 13:12:00,33.0,19.0,30.30,NNW,344,3.0,10.0,55,0.00,,,0.02,,2013-02-10 18:12:00,
2013-02-10 13:22:00,33.0,19.0,30.30,NNW,344,3.0,10.0,55,0.00,,,0.02,,2013-02-10 18:22:00,
2013-02-10 13:32:00,34.0,19.0,30.29,NW,316,1.0,7.0,53,0.00,,,0.02,,2013-02-10 18:32:00,
2013-02-10 13:42:00,34.0,19.0,30.29,NW,316,1.0,7.0,53,0.00,,,0.02,,2013-02-10 18:42:00,
2013-02-10 13:52:00,34.0,19.0,30.29,WSW,248,0.0,5.0,53,0.00,,,0.02,,2013-02-10 18:52:00,
2013-02-10 14:02:00,35.0,20.0,30.28,NW,306,1.0,7.0,53,0.00,,,0.02,,2013-02-10 19:02:00,
2013-02-10 14:12:00,35.0,20.0,30.28,NW,306,1.0,7.0,53,0.00,,,0.02,,2013-02-10 19:12:00,
2013-02-10 14:22:00,35.0,20.0,30.28,NW,306,1.0,7.0,53,0.00,,,0.02,,2013-02-10 19:22:00,
2013-02-10 14:32:00,35.0,17.0,30.28,WNW,290,3.0,7.0,47,0.00,,,0.02,,2013-02-10 19:32:00,
2013-02-10 14:42:00,35.0,18.0,30.28,NNW,334,2.0,7.0,50,0.00,,,0.02,,2013-02-10 19:42:00,
2013-02-10 14:52:00,35.0,18.0,30.28,NNW,334,2.0,7.0,50,0.00,,,0.02,,2013-02-10 19:52:00,
2013-02-10 15:02:00,35.0,17.0,30.29,WSW,255,3.0,6.0,47,0.00,,,0.02,,2013-02-10 20:02:00,
2013-02-10 15:11:00,35.0,17.0,30.29,WSW,255,3.0,6.0,47,0.00,,,0.02,,2013-02-10 20:11:00,
2013-02-10 15:22:00,35.0,17.0,30.29,WSW,255,3.0,6.0,47,0.00,,,0.02,,2013-02-10 20:22:00,
2013-02-10 15:32:00,35.0,18.0,30.29,NW,321,0.0,6.0,49,0.00,,,0.02,,2013-02-10 20:32:00,
2013-02-10 15:42:00,34.0,16.0,30.29,WSW,248,2.0,10.0,48,0.00,,,0.02,,2013-02-10 20:42:00,
2013-02-10 15:52:00,34.0,16.0,30.29,WSW,248,2.0,10.0,48,0.00,,,0.02,,2013-02-10 20:52:00,
2013-02-10 16:02:00,34.0,17.0,30.30,SSW,192,3.0,7.0,50,0.01,,,0.03,,2013-02-10 21:02:00,
2013-02-10 16:11:00,34.0,17.0,30.30,SSW,192,3.0,7.0,50,0.01,,,0.03,,2013-02-10 21:11:00,
2013-02-10 16:22:00,34.0,17.0,30.31,WNW,293,4.0,10.0,49,0.01,,,0.03,,2013-02-10 21:22:00,
2013-02-10 16:32:00,34.0,17.0,30.29,WSW,241,2.0,7.0,49,0.01,,,0.03,,2013-02-10 21:32:00,
2013-02-10 16:42:00,33.0,16.0,30.29,West,267,2.0,5.0,49,0.01,,,0.03,,2013-02-10 21:42:00,
2013-02-10 16:52:00,33.0,16.0,30.29,West,267,2.0,5.0,49,0.01,,,0.03,,2013-02-10 21:52:00,
2013-02-10 17:02:00,32.0,15.0,30.29,WSW,249,0.0,6.0,48,0.00,,,0.03,,2013-02-10 22:02:00,
2013-02-10 17:11:00,32.0,15.0,30.29,WSW,249,0.0,6.0,48,0.00,,,0.03,,2013-02-10 22:11:00,
2013-02-10 17:22:00,32.0,15.0,30.29,WSW,249,0.0,6.0,48,0.00,,,0.03,,2013-02-10 22:22:00,
2013-02-10 17:32:00,29.0,13.0,30.29,WSW,249,0.0,0.0,51,0.00,,,0.03,,2013-02-10 22:32:00,
2013-02-10 17:42:00,28.0,12.0,30.30,WSW,249,0.0,0.0,50,0.00,,,0.03,,2013-02-10 22:42:00,
2013-02-10 17:53:00,28.0,12.0,30.30,WSW,249,0.0,0.0,50,0.00,,,0.03,,2013-02-10 22:53:00,
2013-02-10 18:02:00,26.0,12.0,30.30,WSW,247,1.0,2.0,54,0.00,,,0.03,,2013-02-10 23:02:00,
2013-02-10 18:11:00,26.0,12.0,30.30,WSW,247,1.0,2.0,54,0.00,,,0.03,,2013-02-10 23:11:00,
2013-02-10 18:22:00,26.0,11.0,30.31,SW,224,2.0,6.0,52,0.00,,,0.03,,2013-02-10 23:22:00,
2013-02-10 18:32:00,25.0,12.0,30.31,SSW,210,1.0,3.0,56,0.00,,,0.03,,2013-02-10 23:32:00,
2013-02-10 18:42:00,24.0,11.0,30.30,SSW,211,0.0,2.0,57,0.00,,,0.03,,2013-02-10 23:42:00,
2013-02-10 18:52:00,24.0,11.0,30.30,SSW,211,0.0,2.0,57,0.00,,,0.03,,2013-02-10 23:52:00,
2013-02-10 19:02:00,23.0,12.0,30.31,SSW,210,0.0,2.0,63,0.00,,,0.03,,2013-02-11 00:02:00,
2013-02-10 19:11:00,22.0,12.0,30.31,SSW,210,0.0,2.0,66,0.00,,,0.03,,2013-02-11 00:11:00,
2013-02-10 19:22:00,22.0,12.0,30.31,SSW,210,0.0,2.0,66,0.00,,,0.03,,2013-02-11 00:22:00,
2013-02-10 19:32:00,21.0,13.0,30.31,SSW,210,2.0,3.0,71,0.00,,,0.03,,2013-02-11 00:32:00,
2013-02-10 19:42:00,21.0,13.0,30.31,SSW,210,2.0,3.0,71,0.00,,,0.03,,2013-02-11 00:42:00,
2013-02-10 19:51:00,21.0,13.0,30.31,SSW,210,2.0,3.0,71,0.00,,,0.03,,2013-02-11 00:51:00,
2013-02-10 20:01:00,20.0,13.0,30.31,SSW,211,0.0,0.0,74,0.00,,,0.03,,2013-02-11 01:01:00,
2013-02-10 20:11:00,20.0,13.0,30.31,SSW,211,0.0,0.0,74,0.00,,,0.03,,2013-02-11 01:11:00,
2013-02-10 20:21:00,20.0,14.0,30.31,SSW,210,0.0,1.0,76,0.00,,,0.03,,2013-02-11 01:21:00,
2013-02-10 20:32:00,20.0,15.0,30.31,SSW,211,0.0,2.0,79,0.00,,,0.03,,2013-02-11 01:32:00,
2013-02-10 20:42:00,19.0,14.0,30.31,SSW,210,0.0,0.0,80,0.00,,,0.03,,2013-02-11 01:42:00,
2013-02-10 20:52:00,19.0,14.0,30.31,SSW,210,0.0,0.0,80,0.00,,,0.03,,2013-02-11 01:52:00,
2013-02-10 21:01:00,19.0,14.0,30.31,SSW,210,2.0,3.0,81,0.00,,,0.03,,2013-02-11 02:01:00,
2013-02-10 21:11:00,19.0,14.0,30.31,SSW,210,2.0,3.0,81,0.00,,,0.03,,2013-02-11 02:11:00,
2013-02-10 21:21:00,19.0,14.0,30.31,SSW,211,2.0,3.0,82,0.00,,,0.03,,2013-02-11 02:21:00,
2013-02-10 21:32:00,18.0,14.0,30.31,SSW,210,0.0,0.0,83,0.00,,,0.03,,2013-02-11 02:32:00,
2013-02-10 21:42:00,18.0,14.0,30.31,SSW,210,0.0,0.0,84,0.00,,,0.03,,2013-02-11 02:42:00,
2013-02-10 21:52:00,18.0,14.0,30.31,SSW,210,0.0,0.0,84,0.00,,,0.03,,2013-02-11 02:52:00,
2013-02-10 22:02:00,19.0,15.0,30.31,SSW,211,3.0,3.0,85,0.00,,,0.03,,2013-02-11 03:02:00,
2013-02-10 22:11:00,20.0,16.0,30.31,SSW,211,1.0,4.0,85,0.00,,,0.03,,2013-02-11 03:11:00,
2013-02-10 22:21:00,20.0,16.0,30.31,SSW,211,1.0,4.0,85,0.00,,,0.03,,2013-02-11 03:21:00,
2013-02-10 22:32:00,19.0,15.0,30.30,SSW,211,0.0,0.0,85,0.00,,,0.03,,2013-02-11 03:32:00,
2013-02-10 22:42:00,18.0,14.0,30.30,SSW,210,0.0,1.0,84,0.00,,,0.03,,2013-02-11 03:42:00,
2013-02-10 22:52:00,18.0,14.0,30.30,SSW,210,0.0,1.0,84,0.00,,,0.03,,2013-02-11 03:52:00,
2013-02-10 23:02:00,18.0,15.0,30.30,SSW,211,0.0,3.0,86,0.00,,,0.03,,2013-02-11 04:02:00,
2013-02-10 23:11:00,18.0,15.0,30.30,SSW,211,0.0,3.0,86,0.00,,,0.03,,2013-02-11 04:11:00,
2013-02-10 23:21:00,18.0,15.0,30.30,SSW,211,0.0,0.0,86,0.00,,,0.03,,2013-02-11 04:21:00,
2013-02-10 23:32:00,18.0,15.0,30.29,SSW,211,0.0,2.0,86,0.00,,,0.03,,2013-02-11 04:32:00,
2013-02-10 23:42:00,18.0,15.0,30.30,SSW,211,0.0,0.0,86,0.00,,,0.03,,2013-02-11 04:42:00,
2013-02-10 23:52:00,18.0,15.0,30.30,SSW,211,0.0,0.0,86,0.00,,,0.03,,2013-02-11 04:52:00,